Location: Ch�teau-Arnoux
(44.0814°N, 6.0027°E)
Time: 21:16:16
(UTC+00:00)

USA 234 - Pass Details

Date: 15 November 2019
Orbit: 1099 x 1108 km, 123.0° (Epoch: 30 November)

Event Time Altitude Azimuth Distance (km) Brightness Sun altitude
Rises 03:38:36 0° 64° (ENE) 3,918 7.1 -30.8°
Reaches altitude 10° 03:41:25 10° 54° (NE) 2,961 6.2 -30.3°
Maximum altitude 03:46:48 29° 358° (N) 1,919 4.5 -29.4°
Enters shadow 03:47:40 28° 345° (NNW) 1,954 4.4 -29.2°
